sampling_time,wmo_synop_id,msc_id,stn_nam,stn_elev,lat,long,stn_typ,date_tm,rpt_typ,result_time,crnt_buoy_lat,crnt_buoy_lat_qa_summary,crnt_buoy_long,crnt_buoy_long_qa_summary,avg_air_temp_pst10mts,avg_air_temp_pst10mts_qa_summary,avg_sea_sfc_temp_pst10mts,avg_sea_sfc_temp_pst10mts_qa_summary,avg_batry_volt_pst10mts,avg_batry_volt_pst10mts_qa_summary,avg_solr_panl_crnt_pst10mts,avg_solr_panl_crnt_pst10mts_qa_summary,avg_wtr_lvl_snsr_volt_pst10mts,avg_wtr_lvl_snsr_volt_pst10mts_qa_summary,avg_wave_hgt_pst20mts,avg_wave_hgt_pst20mts_qa_summary,pk_wave_hgt_pst20mts,pk_wave_hgt_pst20mts_qa_summary,sig_wave_pd_pst20mts,sig_wave_pd_pst20mts_qa_summary,sig_wave_hgt_pst20mts,sig_wave_hgt_pst20mts_qa_summary,avg_max_wave_hgt_pst20mts,avg_max_wave_hgt_pst20mts_qa_summary,avg_max_wave_pd_pst20mts,avg_max_wave_pd_pst20mts_qa_summary,avg_wave_pd_pst20mts,avg_wave_pd_pst20mts_qa_summary,pk_wave_pd_pst20mts,pk_wave_pd_pst20mts_qa_summary,avg_stn_pres_pst10mts,avg_stn_pres_pst10mts_qa_summary,avg_wnd_spd_pst10mts,avg_wnd_spd_pst10mts_qa_summary,avg_wnd_dir_pst10mts,avg_wnd_dir_pst10mts_qa_summary,max_avg_wnd_spd_pst10mts,max_avg_wnd_spd_pst10mts_qa_summary,wnd_snsr_vert_disp,wnd_snsr_vert_disp_qa_summary,pres_tend_char_pst3hrs,pres_tend_char_pst3hrs_data_flag,pres_tend_amt_pst3hrs,pres_tend_amt_pst3hrs_data_flag,avg_mslp_pst10mts,avg_mslp_pst10mts_data_flag,avg_stn_pres_pst10mts_1,avg_stn_pres_pst10mts_1_qa_summary,avg_stn_pres_pst10mts_2,avg_stn_pres_pst10mts_2_qa_summary,avg_wnd_spd_pst10mts_1,avg_wnd_spd_pst10mts_1_qa_summary,avg_wnd_spd_pst10mts_2,avg_wnd_spd_pst10mts_2_qa_summary,avg_wnd_dir_pst10mts_1,avg_wnd_dir_pst10mts_1_qa_summary,avg_wnd_dir_pst10mts_2,avg_wnd_dir_pst10mts_2_qa_summary,max_avg_wnd_spd_pst10mts_1,max_avg_wnd_spd_pst10mts_1_qa_summary,max_avg_wnd_spd_pst10mts_2,max_avg_wnd_spd_pst10mts_2_qa_summary
2022-10-26T00:00:00Z,44489,9302001,WEST CHEDABUCTO BAY,0,45.48687,-61.14100000000001,18,2022-10-26T00:00:00.000Z,108,2022-10-26T00:02:54.543Z,45.48723,100,-61.141119999999994,100,13.8,100,14.1,100,12.5,100,0.0,100,3.6,100,0.2,100,0.5,100,6.1,100,0.2,100,0.3,100,6.3,100,4.6,100,9.1,100,1022.9,100,7.2,100,139,100,8.6,100,5,100,0,1,-0.1,1,1022.9,1,1022.9,100,1022.9,100,7.2,100,6.8,100,139,100,142,100,8.6,100,8.6,100
2022-10-26T00:10:00Z,44489,9302001,WEST CHEDABUCTO BAY,0,45.48687,-61.14100000000001,18,2022-10-26T00:10:00.000Z,110,2022-10-26T00:13:00.231Z,,-1,,-1,14.6,100,14.8,100,12.6,100,0.0,100,3.6,100,,-1,,-1,,-1,,-1,,-1,,-1,,-1,,-1,1022.8,100,7.2,100,148,100,7.9,100,5,100,8,1,-0.2,1,1022.8,1,1022.8,100,1022.8,100,7.2,100,6.8,100,148,100,150,100,7.9,100,7.6,100
2022-10-26T00:20:00Z,44489,9302001,WEST CHEDABUCTO BAY,0,45.48687,-61.14100000000001,18,2022-10-26T00:20:00.000Z,110,2022-10-26T00:24:00.208Z,45.48725,100,-61.141130000000004,100,13.9,100,14.1,100,12.6,100,0.0,100,3.6,100,,-1,,-1,,-1,,-1,,-1,,-1,,-1,,-1,1022.7,100,7.9,100,160,100,9.7,100,5,100,8,1,-0.4,1,1022.7,1,1022.7,100,1022.7,100,7.9,100,7.6,100,160,100,163,100,9.7,100,9.7,100
2022-10-26T00:30:00Z,44489,9302001,WEST CHEDABUCTO BAY,0,45.48687,-61.14100000000001,18,2022-10-26T00:30:00.000Z,110,2022-10-26T00:32:56.283Z,45.48725,100,-61.14112,100,14.1,100,14.1,100,12.6,100,0.0,100,3.6,100,,-1,,-1,,-1,,-1,,-1,,-1,,-1,,-1,1022.5,100,9.7,100,194,100,11.5,100,5,100,8,1,-0.4,1,1022.5,1,1022.5,100,1022.6,100,9.7,100,9.7,100,194,100,198,100,11.5,100,11.5,100
2022-10-26T00:40:00Z,44489,9302001,WEST CHEDABUCTO BAY,0,45.48687,-61.14100000000001,18,2022-10-26T00:40:00.000Z,110,2022-10-26T00:43:02.719Z,45.48725,100,-61.141119999999994,100,14.3,100,14.1,100,12.5,100,0.0,100,3.6,100,,-1,,-1,,-1,,-1,,-1,,-1,,-1,,-1,1022.6,100,11.5,100,213,100,14.0,100,5,100,8,1,-0.4,1,1022.6,1,1022.6,100,1022.6,100,11.5,100,11.5,100,213,100,217,100,14.0,100,14.0,100
2022-10-26T00:50:00Z,44489,9302001,WEST CHEDABUCTO BAY,0,45.48687,-61.14100000000001,18,2022-10-26T00:50:00.000Z,110,2022-10-26T00:52:57.378Z,45.48723,100,-61.14112,100,14.3,100,14.1,100,12.5,100,0.0,100,3.6,100,,-1,,-1,,-1,,-1,,-1,,-1,,-1,,-1,1022.6,100,11.2,100,217,100,14.0,100,5,100,8,1,-0.4,1,1022.6,1,1022.6,100,1022.6,100,11.2,100,11.2,100,217,100,222,100,14.0,100,13.7,100
2022-10-26T01:00:00Z,44489,9302001,WEST CHEDABUCTO BAY,0,45.48687,-61.14100000000001,18,2022-10-26T01:00:00.000Z,108,2022-10-26T01:02:58.804Z,45.48723,100,-61.1411,100,14.4,100,14.1,100,12.5,100,0.0,100,3.6,100,0.1,100,0.4,100,6.1,100,0.2,100,0.3,100,6.2,100,4.7,100,9.1,100,1022.6,100,11.9,100,223,100,14.4,100,5,100,8,1,-0.4,1,1022.6,1,1022.6,100,1022.6,100,11.9,100,11.9,100,223,100,228,100,14.4,100,14.0,100
2022-10-26T01:10:00Z,44489,9302001,WEST CHEDABUCTO BAY,0,45.48687,-61.14100000000001,18,2022-10-26T01:10:00.000Z,110,2022-10-26T01:16:00.100Z,45.48723,100,-61.14112,100,14.5,100,14.1,100,12.5,100,0.0,100,3.6,100,,-1,,-1,,-1,,-1,,-1,,-1,,-1,,-1,1022.5,100,13.3,100,224,100,18.0,100,5,100,8,1,-0.6,1,1022.5,1,1022.5,100,1022.6,100,13.3,100,13.3,100,224,100,228,100,18.0,100,18.4,100
2022-10-26T01:20:00Z,44489,9302001,WEST CHEDABUCTO BAY,0,45.48687,-61.14100000000001,18,2022-10-26T01:20:00.000Z,110,2022-10-26T01:24:07.393Z,45.48723,100,-61.1411,100,14.6,100,14.1,100,12.5,100,0.0,100,3.6,100,,-1,,-1,,-1,,-1,,-1,,-1,,-1,,-1,1022.4,100,16.9,100,229,100,20.2,100,5,100,7,1,-0.8,1,1022.4,1,1022.4,100,1022.4,100,16.9,100,16.9,100,229,100,234,100,20.2,100,20.2,100
2022-10-26T01:30:00Z,44489,9302001,WEST CHEDABUCTO BAY,0,45.48687,-61.14100000000001,18,2022-10-26T01:30:00.000Z,110,2022-10-26T01:33:04.490Z,45.48723,100,-61.14112,100,14.6,100,14.1,100,12.5,100,0.0,100,3.6,100,,-1,,-1,,-1,,-1,,-1,,-1,,-1,,-1,1022.3,100,15.5,100,232,100,18.0,100,5,100,8,1,-0.8,1,1022.3,1,1022.3,100,1022.3,100,15.5,100,13.3,100,232,100,234,100,18.0,100,17.6,100
2022-10-26T01:40:00Z,44489,9302001,WEST CHEDABUCTO BAY,0,45.48687,-61.14100000000001,18,2022-10-26T01:40:00.000Z,110,2022-10-26T01:43:06.503Z,45.48725,100,-61.141119999999994,100,14.5,100,14.1,100,12.5,100,0.0,100,3.6,100,,-1,,-1,,-1,,-1,,-1,,-1,,-1,,-1,1022.2,100,16.6,100,231,100,19.1,100,5,100,8,1,-0.9,1,1022.2,1,1022.2,100,1022.2,100,16.6,100,14.4,100,231,100,233,100,19.1,100,18.0,100
2022-10-26T01:50:00Z,44489,9302001,WEST CHEDABUCTO BAY,0,45.48687,-61.14100000000001,18,2022-10-26T01:50:00.000Z,110,2022-10-26T01:53:20.480Z,45.48723,100,-61.14112,100,14.4,100,14.1,100,12.5,100,0.0,100,3.6,100,,-1,,-1,,-1,,-1,,-1,,-1,,-1,,-1,1022.1,100,16.2,100,231,100,19.1,100,5,100,8,1,-0.9,1,1022.1,1,1022.1,100,1022.1,100,16.2,100,13.7,100,231,100,233,100,19.1,100,16.6,100
2022-10-26T02:00:00Z,44489,9302001,WEST CHEDABUCTO BAY,0,45.48687,-61.14100000000001,18,2022-10-26T02:00:00.000Z,108,2022-10-26T02:03:21.932Z,45.48728,100,-61.14115,100,14.6,100,14.1,100,12.5,100,0.0,100,3.6,100,0.2,100,0.5,100,6.0,100,0.2,100,0.3,100,6.3,100,4.4,100,9.1,100,1022.1,100,17.3,100,236,100,19.4,100,5,100,8,1,-0.8,1,1022.1,1,1022.1,100,1022.2,100,17.3,100,15.5,100,236,100,237,100,19.4,100,18.4,100
2022-10-26T02:10:00Z,44489,9302001,WEST CHEDABUCTO BAY,0,45.48687,-61.14100000000001,18,2022-10-26T02:10:00.000Z,110,2022-10-26T02:16:24.181Z,45.4873,100,-61.14115,100,14.7,100,14.1,100,12.5,100,0.0,100,3.6,100,,-1,,-1,,-1,,-1,,-1,,-1,,-1,,-1,1022.1,100,17.6,100,233,100,22.7,100,5,100,8,1,-0.9,1,1022.1,1,1022.1,100,1022.1,100,17.6,100,15.8,100,233,100,235,100,22.7,100,21.2,100
2022-10-26T02:20:00Z,44489,9302001,WEST CHEDABUCTO BAY,0,45.48687,-61.14100000000001,18,2022-10-26T02:20:00.000Z,110,2022-10-26T02:23:22.449Z,45.487320000000004,100,-61.14115,100,14.6,100,14.1,100,12.5,100,0.0,100,3.6,100,,-1,,-1,,-1,,-1,,-1,,-1,,-1,,-1,1022.0,100,18.4,100,229,100,24.1,100,5,100,8,1,-0.9,1,1022.0,1,1022.0,100,1022.1,100,18.4,100,16.9,100,229,100,231,100,24.1,100,23.8,100
2022-10-26T02:30:00Z,44489,9302001,WEST CHEDABUCTO BAY,0,45.48687,-61.14100000000001,18,2022-10-26T02:30:00.000Z,110,2022-10-26T02:33:24.391Z,45.48728,100,-61.14115,100,14.7,100,14.1,100,12.5,100,0.0,100,3.6,100,,-1,,-1,,-1,,-1,,-1,,-1,,-1,,-1,1022.0,100,15.5,100,235,100,18.7,100,5,100,6,1,-1.0,1,1022.0,1,1022.0,100,1022.0,100,15.5,100,14.0,100,235,100,236,100,18.7,100,18.0,100
2022-10-26T02:40:00Z,44489,9302001,WEST CHEDABUCTO BAY,0,45.48687,-61.14100000000001,18,2022-10-26T02:40:00.000Z,110,2022-10-26T02:43:26.612Z,45.48728,100,-61.14115,100,14.7,100,14.1,100,12.5,100,0.0,100,3.6,100,,-1,,-1,,-1,,-1,,-1,,-1,,-1,,-1,1021.9,100,15.1,100,231,100,18.4,100,5,100,6,1,-1.1,1,1021.9,1,1021.9,100,1021.9,100,15.1,100,13.3,100,231,100,233,100,18.4,100,17.3,100
2022-10-26T02:50:00Z,44489,9302001,WEST CHEDABUCTO BAY,0,45.48687,-61.14100000000001,18,2022-10-26T02:50:00.000Z,110,2022-10-26T02:53:28.688Z,45.4873,100,-61.14118000000001,100,14.8,100,14.1,100,12.5,100,0.0,100,3.6,100,,-1,,-1,,-1,,-1,,-1,,-1,,-1,,-1,1021.9,100,15.8,100,231,100,18.4,100,5,100,6,1,-1.0,1,1021.9,1,1021.9,100,1021.9,100,15.8,100,14.4,100,231,100,233,100,18.4,100,18.0,100
2022-10-26T03:00:00Z,44489,9302001,WEST CHEDABUCTO BAY,0,45.48687,-61.14100000000001,18,2022-10-26T03:00:00.000Z,108,2022-10-26T03:03:32.545Z,45.48728,100,-61.14122,100,14.8,100,14.1,100,12.5,100,0.0,100,3.6,100,0.1,100,0.4,100,5.7,100,0.2,100,0.3,100,5.9,100,4.1,100,8.7,100,1021.8,100,14.8,100,230,100,17.3,100,5,100,8,1,-1.1,1,1021.8,1,1021.8,100,1021.8,100,14.8,100,13.0,100,230,100,231,100,17.3,100,15.8,100
2022-10-26T03:10:00Z,44489,9302001,WEST CHEDABUCTO BAY,0,45.48687,-61.14100000000001,18,2022-10-26T03:10:00.000Z,110,2022-10-26T03:15:45.888Z,45.48727,100,-61.14118000000001,100,14.8,100,14.1,100,12.5,100,0.0,100,3.6,100,,-1,,-1,,-1,,-1,,-1,,-1,,-1,,-1,1021.8,100,14.4,100,225,100,18.0,100,5,100,8,1,-1.0,1,1021.8,1,1021.8,100,1021.8,100,14.4,100,12.2,100,225,100,226,100,18.0,100,16.2,100
2022-10-26T03:20:00Z,44489,9302001,WEST CHEDABUCTO BAY,0,45.48687,-61.14100000000001,18,2022-10-26T03:20:00.000Z,110,2022-10-26T03:23:47.360Z,45.48727,100,-61.14123000000001,100,15.1,100,14.1,100,12.5,100,0.0,100,3.6,100,,-1,,-1,,-1,,-1,,-1,,-1,,-1,,-1,1021.7,100,15.8,100,225,100,18.0,100,5,100,8,1,-1.0,1,1021.7,1,1021.7,100,1021.7,100,15.8,100,13.7,100,225,100,227,100,18.0,100,17.6,100
2022-10-26T03:30:00Z,44489,9302001,WEST CHEDABUCTO BAY,0,45.48687,-61.14100000000001,18,2022-10-26T03:30:00.000Z,110,2022-10-26T03:32:44.160Z,45.48723,100,-61.14113,100,15.0,100,14.1,100,12.5,100,0.0,100,3.6,100,,-1,,-1,,-1,,-1,,-1,,-1,,-1,,-1,1021.7,100,14.8,100,223,100,16.9,100,5,100,7,1,-0.8,1,1021.7,1,1021.7,100,1021.7,100,14.8,100,12.6,100,223,100,224,100,16.9,100,15.5,100
2022-10-26T03:40:00Z,44489,9302001,WEST CHEDABUCTO BAY,0,45.48687,-61.14100000000001,18,2022-10-26T03:40:00.000Z,110,2022-10-26T03:42:49.128Z,45.48723,100,-61.141130000000004,100,15.0,100,14.1,100,12.4,100,0.0,100,3.6,100,,-1,,-1,,-1,,-1,,-1,,-1,,-1,,-1,1021.6,100,16.2,100,226,100,18.0,100,5,100,6,1,-0.9,1,1021.6,1,1021.6,100,1021.7,100,16.2,100,14.0,100,226,100,227,100,18.0,100,16.2,100
2022-10-26T03:50:00Z,44489,9302001,WEST CHEDABUCTO BAY,0,45.48687,-61.14100000000001,18,2022-10-26T03:50:00.000Z,110,2022-10-26T03:52:49.275Z,45.48723,100,-61.14112,100,14.9,100,14.1,100,12.4,100,0.0,100,3.6,100,,-1,,-1,,-1,,-1,,-1,,-1,,-1,,-1,1021.6,100,15.1,100,225,100,18.0,100,5,100,6,1,-1.0,1,1021.6,1,1021.6,100,1021.6,100,15.1,100,13.7,100,225,100,227,100,18.0,100,16.9,100
2022-10-26T04:00:00Z,44489,9302001,WEST CHEDABUCTO BAY,0,45.48687,-61.14100000000001,18,2022-10-26T04:00:00.000Z,108,2022-10-26T04:02:49.348Z,45.48725,100,-61.141119999999994,100,15.0,100,14.1,100,12.4,100,0.0,100,3.6,100,0.1,100,0.4,100,5.9,100,0.2,100,0.3,100,6.5,100,4.3,100,8.3,100,1021.6,100,16.6,100,224,100,19.1,100,5,100,6,1,-1.0,1,1021.6,1,1021.6,100,1021.6,100,16.6,100,15.1,100,224,100,225,100,19.1,100,18.4,100
2022-10-26T04:10:00Z,44489,9302001,WEST CHEDABUCTO BAY,0,45.48687,-61.14100000000001,18,2022-10-26T04:10:00.000Z,110,2022-10-26T04:15:59.887Z,45.48727,100,-61.14113,100,15.0,100,14.1,100,12.5,100,0.0,100,3.6,100,,-1,,-1,,-1,,-1,,-1,,-1,,-1,,-1,1021.5,100,17.3,100,230,100,22.0,100,5,100,6,1,-1.1,1,1021.5,1,1021.5,100,1021.5,100,17.3,100,16.6,100,230,100,232,100,22.0,100,21.6,100
2022-10-26T04:20:00Z,44489,9302001,WEST CHEDABUCTO BAY,0,45.48687,-61.14100000000001,18,2022-10-26T04:20:00.000Z,110,2022-10-26T04:23:01.890Z,45.48725,100,-61.141119999999994,100,15.0,100,14.1,100,12.5,100,0.0,100,3.6,100,,-1,,-1,,-1,,-1,,-1,,-1,,-1,,-1,1021.4,100,19.8,100,230,100,22.7,100,5,100,7,1,-1.0,1,1021.4,1,1021.4,100,1021.4,100,19.8,100,19.4,100,230,100,232,100,22.7,100,22.0,100
2022-10-26T04:30:00Z,44489,9302001,WEST CHEDABUCTO BAY,0,45.48687,-61.14100000000001,18,2022-10-26T04:30:00.000Z,110,2022-10-26T04:33:05.934Z,45.48725,100,-61.14113,100,15.1,100,14.1,100,12.4,100,0.0,100,3.6,100,,-1,,-1,,-1,,-1,,-1,,-1,,-1,,-1,1021.4,100,17.6,100,229,100,19.4,100,5,100,7,1,-0.9,1,1021.4,1,1021.4,100,1021.4,100,17.6,100,16.9,100,229,100,232,100,19.4,100,18.7,100
2022-10-26T04:40:00Z,44489,9302001,WEST CHEDABUCTO BAY,0,45.48687,-61.14100000000001,18,2022-10-26T04:40:00.000Z,110,2022-10-26T04:43:07.788Z,45.48727,100,-61.141130000000004,100,15.0,100,14.1,100,12.4,100,0.0,100,3.6,100,,-1,,-1,,-1,,-1,,-1,,-1,,-1,,-1,1021.3,100,18.0,100,230,100,19.8,100,5,100,7,1,-0.9,1,1021.3,1,1021.3,100,1021.3,100,18.0,100,17.3,100,230,100,232,100,19.8,100,19.1,100
2022-10-26T04:50:00Z,44489,9302001,WEST CHEDABUCTO BAY,0,45.48687,-61.14100000000001,18,2022-10-26T04:50:00.000Z,110,2022-10-26T04:53:08.261Z,45.48723,100,-61.14113,100,15.1,100,14.1,100,12.4,100,0.0,100,3.6,100,,-1,,-1,,-1,,-1,,-1,,-1,,-1,,-1,1021.3,100,16.9,100,233,100,19.4,100,5,100,8,1,-0.8,1,1021.3,1,1021.3,100,1021.3,100,16.9,100,16.2,100,233,100,235,100,19.4,100,18.7,100
2022-10-26T05:00:00Z,44489,9302001,WEST CHEDABUCTO BAY,0,45.48687,-61.14100000000001,18,2022-10-26T05:00:00.000Z,108,2022-10-26T05:03:09.511Z,45.48725,100,-61.141119999999994,100,14.9,100,14.1,100,12.4,100,0.0,100,3.6,100,0.2,100,0.4,100,5.4,100,0.2,100,0.3,100,6.2,100,3.6,100,8.7,100,1021.4,100,16.2,100,238,100,19.1,100,5,100,6,1,-0.8,1,1021.4,1,1021.4,100,1021.4,100,16.2,100,15.5,100,238,100,240,100,19.1,100,18.0,100
2022-10-26T05:10:00Z,44489,9302001,WEST CHEDABUCTO BAY,0,45.48687,-61.14100000000001,18,2022-10-26T05:10:00.000Z,110,2022-10-26T05:16:12.405Z,45.48722,100,-61.1411,100,14.8,100,14.0,100,12.4,100,0.0,100,3.6,100,,-1,,-1,,-1,,-1,,-1,,-1,,-1,,-1,1021.4,100,15.5,100,243,100,17.6,100,5,100,6,1,-0.7,1,1021.4,1,1021.4,100,1021.4,100,15.5,100,14.8,100,243,100,245,100,17.6,100,17.3,100
2022-10-26T05:20:00Z,44489,9302001,WEST CHEDABUCTO BAY,0,45.48687,-61.14100000000001,18,2022-10-26T05:20:00.000Z,110,2022-10-26T05:23:27.185Z,45.48725,100,-61.141130000000004,100,14.9,100,14.0,100,12.4,100,0.0,100,3.6,100,,-1,,-1,,-1,,-1,,-1,,-1,,-1,,-1,1021.4,100,17.3,100,239,100,20.2,100,5,100,6,1,-0.7,1,1021.4,1,1021.4,100,1021.4,100,17.3,100,16.6,100,239,100,242,100,20.2,100,20.2,100
2022-10-26T05:30:00Z,44489,9302001,WEST CHEDABUCTO BAY,0,45.48687,-61.14100000000001,18,2022-10-26T05:30:00.000Z,110,2022-10-26T05:33:25.187Z,45.48723,100,-61.14112,100,14.7,100,14.0,100,12.4,100,0.0,100,3.6,100,,-1,,-1,,-1,,-1,,-1,,-1,,-1,,-1,1021.3,100,14.8,100,232,100,21.6,100,5,100,6,1,-0.7,1,1021.3,1,1021.3,100,1021.4,100,14.8,100,14.0,100,232,100,234,100,21.6,100,20.9,100
2022-10-26T05:40:00Z,44489,9302001,WEST CHEDABUCTO BAY,0,45.48687,-61.14100000000001,18,2022-10-26T05:40:00.000Z,110,2022-10-26T05:43:26.639Z,45.48725,100,-61.141119999999994,100,15.1,100,14.0,100,12.4,100,0.0,100,3.6,100,,-1,,-1,,-1,,-1,,-1,,-1,,-1,,-1,1021.2,100,18.7,100,244,100,24.5,100,5,100,6,1,-0.7,1,1021.2,1,1021.2,100,1021.2,100,18.7,100,18.0,100,244,100,247,100,24.5,100,24.5,100
2022-10-26T05:50:00Z,44489,9302001,WEST CHEDABUCTO BAY,0,45.48687,-61.14100000000001,18,2022-10-26T05:50:00.000Z,110,2022-10-26T05:53:22.722Z,45.48725,100,-61.14112,100,14.8,100,14.0,100,12.4,100,0.0,100,3.6,100,,-1,,-1,,-1,,-1,,-1,,-1,,-1,,-1,1021.2,100,17.6,100,246,100,20.5,100,5,100,6,1,-0.7,1,1021.2,1,1021.2,100,1021.2,100,17.6,100,16.9,100,246,100,248,100,20.5,100,19.8,100
2022-10-26T06:00:00Z,44489,9302001,WEST CHEDABUCTO BAY,0,45.48687,-61.14100000000001,18,2022-10-26T06:00:00.000Z,108,2022-10-26T06:03:26.157Z,45.48725,100,-61.141119999999994,100,14.7,100,14.0,100,12.4,100,0.0,100,3.6,100,0.2,100,0.4,100,4.9,100,0.2,100,0.3,100,5.9,100,3.5,100,9.1,100,1021.2,100,16.2,100,250,100,19.8,100,5,100,7,1,-0.6,1,1021.2,1,1021.2,100,1021.2,100,16.2,100,15.8,100,250,100,252,100,19.8,100,19.1,100
2022-10-26T06:10:00Z,44489,9302001,WEST CHEDABUCTO BAY,0,45.48687,-61.14100000000001,18,2022-10-26T06:10:00.000Z,110,2022-10-26T06:16:30.019Z,45.48725,100,-61.14112,100,14.7,100,14.0,100,12.4,100,0.0,100,3.6,100,,-1,,-1,,-1,,-1,,-1,,-1,,-1,,-1,1021.1,100,15.1,100,247,100,18.0,100,5,100,7,1,-0.6,1,1021.1,1,1021.1,100,1021.2,100,15.1,100,14.8,100,247,100,250,100,18.0,100,17.6,100
2022-10-26T06:20:00Z,44489,9302001,WEST CHEDABUCTO BAY,0,45.48687,-61.14100000000001,18,2022-10-26T06:20:00.000Z,110,2022-10-26T06:23:27.497Z,45.48727,100,-61.141130000000004,100,14.7,100,14.0,100,12.4,100,0.0,100,3.6,100,,-1,,-1,,-1,,-1,,-1,,-1,,-1,,-1,1021.1,100,16.2,100,244,100,18.4,100,5,100,7,1,-0.6,1,1021.1,1,1021.1,100,1021.1,100,16.2,100,15.8,100,244,100,247,100,18.4,100,18.0,100
2022-10-26T06:30:00Z,44489,9302001,WEST CHEDABUCTO BAY,0,45.48687,-61.14100000000001,18,2022-10-26T06:30:00.000Z,110,2022-10-26T06:33:43.420Z,45.48723,100,-61.14113,100,14.7,100,14.0,100,12.4,100,0.0,100,3.6,100,,-1,,-1,,-1,,-1,,-1,,-1,,-1,,-1,1021.1,100,15.5,100,235,100,17.6,100,5,100,6,1,-0.6,1,1021.1,1,1021.1,100,1021.1,100,15.5,100,14.8,100,235,100,237,100,17.6,100,17.3,100
2022-10-26T06:40:00Z,44489,9302001,WEST CHEDABUCTO BAY,0,45.48687,-61.14100000000001,18,2022-10-26T06:40:00.000Z,110,2022-10-26T06:42:42.770Z,45.48723,100,-61.141130000000004,100,14.7,100,14.0,100,12.4,100,0.0,100,3.6,100,,-1,,-1,,-1,,-1,,-1,,-1,,-1,,-1,1021.1,100,13.7,100,234,100,15.8,100,5,100,6,1,-0.6,1,1021.1,1,1021.1,100,1021.1,100,13.7,100,13.3,100,234,100,237,100,15.8,100,15.1,100
2022-10-26T06:50:00Z,44489,9302001,WEST CHEDABUCTO BAY,0,45.48687,-61.14100000000001,18,2022-10-26T06:50:00.000Z,110,2022-10-26T06:53:48.026Z,45.48723,100,-61.14113,100,14.7,100,14.0,100,12.4,100,0.0,100,3.6,100,,-1,,-1,,-1,,-1,,-1,,-1,,-1,,-1,1021.0,100,10.8,100,239,100,12.2,100,5,100,7,1,-0.7,1,1021.0,1,1021.0,100,1021.0,100,10.8,100,10.4,100,239,100,241,100,12.2,100,11.9,100
2022-10-26T07:00:00Z,44489,9302001,WEST CHEDABUCTO BAY,0,45.48687,-61.14100000000001,18,2022-10-26T07:00:00.000Z,108,2022-10-26T07:03:43.570Z,45.48723,100,-61.141119999999994,100,14.7,100,14.0,100,12.4,100,0.0,100,3.6,100,0.1,100,0.4,100,5.9,100,0.2,100,0.3,100,6.5,100,4.3,100,8.7,100,1020.9,100,12.6,100,240,100,17.3,100,5,100,8,1,-0.7,1,1020.9,1,1020.9,100,1020.9,100,12.6,100,12.2,100,240,100,242,100,17.3,100,16.6,100
2022-10-26T07:10:00Z,44489,9302001,WEST CHEDABUCTO BAY,0,45.48687,-61.14100000000001,18,2022-10-26T07:10:00.000Z,110,2022-10-26T07:15:46.487Z,45.48727,100,-61.14113,100,14.8,100,14.0,100,12.4,100,0.0,100,3.6,100,,-1,,-1,,-1,,-1,,-1,,-1,,-1,,-1,1020.9,100,14.0,100,241,100,16.2,100,5,100,8,1,-0.6,1,1020.9,1,1020.9,100,1021.0,100,14.0,100,13.7,100,241,100,243,100,16.2,100,15.8,100
2022-10-26T07:20:00Z,44489,9302001,WEST CHEDABUCTO BAY,0,45.48687,-61.14100000000001,18,2022-10-26T07:20:00.000Z,110,2022-10-26T07:22:48.589Z,45.48725,100,-61.141130000000004,100,14.8,100,14.0,100,12.4,100,0.0,100,3.6,100,,-1,,-1,,-1,,-1,,-1,,-1,,-1,,-1,1020.9,100,13.0,100,243,100,14.4,100,5,100,8,1,-0.5,1,1020.9,1,1020.9,100,1020.9,100,13.0,100,12.2,100,243,100,246,100,14.4,100,14.4,100
2022-10-26T07:30:00Z,44489,9302001,WEST CHEDABUCTO BAY,0,45.48687,-61.14100000000001,18,2022-10-26T07:30:00.000Z,110,2022-10-26T07:32:50.196Z,45.48727,100,-61.14113,100,14.6,100,14.0,100,12.4,100,0.0,100,3.6,100,,-1,,-1,,-1,,-1,,-1,,-1,,-1,,-1,1020.9,100,13.3,100,245,100,15.1,100,5,100,8,1,-0.5,1,1020.9,1,1020.9,100,1020.9,100,13.3,100,13.0,100,245,100,248,100,15.1,100,14.4,100
2022-10-26T07:40:00Z,44489,9302001,WEST CHEDABUCTO BAY,0,45.48687,-61.14100000000001,18,2022-10-26T07:40:00.000Z,110,2022-10-26T07:42:53.124Z,45.48725,100,-61.141119999999994,100,14.6,100,14.0,100,12.4,100,0.0,100,3.6,100,,-1,,-1,,-1,,-1,,-1,,-1,,-1,,-1,1020.9,100,14.0,100,243,100,15.5,100,5,100,8,1,-0.4,1,1020.9,1,1020.9,100,1020.9,100,14.0,100,13.7,100,243,100,245,100,15.5,100,15.5,100
2022-10-26T07:50:00Z,44489,9302001,WEST CHEDABUCTO BAY,0,45.48687,-61.14100000000001,18,2022-10-26T07:50:00.000Z,110,2022-10-26T07:53:01.942Z,45.48728,100,-61.14115,100,14.7,100,14.0,100,12.4,100,0.0,100,3.6,100,,-1,,-1,,-1,,-1,,-1,,-1,,-1,,-1,1020.8,100,15.5,100,245,100,16.9,100,5,100,7,1,-0.5,1,1020.8,1,1020.8,100,1020.9,100,15.5,100,14.8,100,245,100,247,100,16.9,100,16.6,100
2022-10-26T08:00:00Z,44489,9302001,WEST CHEDABUCTO BAY,0,45.48687,-61.14100000000001,18,2022-10-26T08:00:00.000Z,108,2022-10-26T08:03:00.796Z,45.48727,100,-61.141130000000004,100,14.7,100,14.0,100,12.4,100,0.0,100,3.6,100,0.1,100,0.4,100,5.9,100,0.2,100,0.3,100,6.3,100,4.2,100,8.0,100,1020.8,100,14.8,100,239,100,16.9,100,5,100,6,1,-0.6,1,1020.8,1,1020.8,100,1020.8,100,14.8,100,14.4,100,239,100,241,100,16.9,100,16.6,100
2022-10-26T08:10:00Z,44489,9302001,WEST CHEDABUCTO BAY,0,45.48687,-61.14100000000001,18,2022-10-26T08:10:00.000Z,110,2022-10-26T08:15:56.300Z,45.48728,100,-61.14118000000001,100,14.7,100,14.0,100,12.4,100,0.0,100,3.6,100,,-1,,-1,,-1,,-1,,-1,,-1,,-1,,-1,1020.8,100,14.8,100,235,100,16.9,100,5,100,6,1,-0.6,1,1020.8,1,1020.8,100,1020.8,100,14.8,100,14.4,100,235,100,238,100,16.9,100,16.6,100
2022-10-26T08:20:00Z,44489,9302001,WEST CHEDABUCTO BAY,0,45.48687,-61.14100000000001,18,2022-10-26T08:20:00.000Z,110,2022-10-26T08:23:03.460Z,45.48725,100,-61.1411,100,14.6,100,14.0,100,12.4,100,0.0,100,3.6,100,,-1,,-1,,-1,,-1,,-1,,-1,,-1,,-1,1020.7,100,14.8,100,236,100,16.6,100,5,100,6,1,-0.6,1,1020.7,1,1020.7,100,1020.7,100,14.8,100,14.0,100,236,100,239,100,16.6,100,16.6,100
2022-10-26T08:30:00Z,44489,9302001,WEST CHEDABUCTO BAY,0,45.48687,-61.14100000000001,18,2022-10-26T08:30:00.000Z,110,2022-10-26T08:34:08.692Z,45.48727,100,-61.14115,100,14.6,100,14.0,100,12.4,100,0.0,100,3.6,100,,-1,,-1,,-1,,-1,,-1,,-1,,-1,,-1,1020.7,100,13.7,100,239,100,15.8,100,5,100,7,1,-0.7,1,1020.7,1,1020.7,100,1020.7,100,13.7,100,13.3,100,239,100,242,100,15.8,100,15.1,100
2022-10-26T08:40:00Z,44489,9302001,WEST CHEDABUCTO BAY,0,45.48687,-61.14100000000001,18,2022-10-26T08:40:00.000Z,110,2022-10-26T08:43:11.023Z,45.48725,100,-61.14115,100,14.5,100,14.0,100,12.4,100,0.0,100,3.6,100,,-1,,-1,,-1,,-1,,-1,,-1,,-1,,-1,1020.7,100,14.4,100,241,100,16.2,100,5,100,8,1,-0.6,1,1020.7,1,1020.7,100,1020.7,100,14.4,100,14.0,100,241,100,243,100,16.2,100,15.8,100
2022-10-26T08:50:00Z,44489,9302001,WEST CHEDABUCTO BAY,0,45.48687,-61.14100000000001,18,2022-10-26T08:50:00.000Z,110,2022-10-26T08:53:06.208Z,45.48727,100,-61.14115,100,14.5,100,14.0,100,12.4,100,0.0,100,3.6,100,,-1,,-1,,-1,,-1,,-1,,-1,,-1,,-1,1020.7,100,14.4,100,243,100,15.8,100,5,100,6,1,-0.5,1,1020.7,1,1020.7,100,1020.7,100,14.4,100,13.7,100,243,100,245,100,15.8,100,15.5,100
2022-10-26T09:00:00Z,44489,9302001,WEST CHEDABUCTO BAY,0,45.48687,-61.14100000000001,18,2022-10-26T09:00:00.000Z,108,2022-10-26T09:03:08.908Z,45.48725,100,-61.14115,100,14.4,100,14.0,100,12.4,100,0.0,100,3.6,100,0.1,100,0.3,100,5.7,100,0.2,100,0.2,100,6.2,100,4.4,100,9.1,100,1020.8,100,13.3,100,244,100,15.8,100,5,100,6,1,-0.4,1,1020.8,1,1020.8,100,1020.8,100,13.3,100,13.0,100,244,100,246,100,15.8,100,15.8,100
2022-10-26T09:10:00Z,44489,9302001,WEST CHEDABUCTO BAY,0,45.48687,-61.14100000000001,18,2022-10-26T09:10:00.000Z,110,2022-10-26T09:16:11.259Z,45.48728,100,-61.14115,100,14.4,100,14.0,100,12.4,100,0.0,100,3.6,100,,-1,,-1,,-1,,-1,,-1,,-1,,-1,,-1,1020.8,100,12.2,100,236,100,14.8,100,5,100,6,1,-0.4,1,1020.8,1,1020.8,100,1020.8,100,12.2,100,11.9,100,236,100,238,100,14.8,100,14.0,100